When you browse on this site, cookies collect data to enhance your experience and personalize the content and advertising you see.
Visit our Privacy Policy to learn more. By continuing to use the site, you agree to this use of cookies and data.
  • în România
  • Lista ţărilor
  • Pe 7 zile
  • Temperatura apei
  • Meteo pe hartă
  • Widget-uri
  • user-avatar
    Intrare

    Meteo pe oră la San Fernando de Apure

    Astăzi, 9 Decembrie, Luni

    Timp Temperatura Precipitaţii Vânt Presiune Umiditate
    00:00 +26°C° 0 mm 2 m/s 753 mmHg 76%
    01:00 +26°C° 0 mm 2 m/s 753 mmHg 79%
    02:00 +25°C° 0 mm 2 m/s 753 mmHg 80%
    03:00 +25°C° 0 mm 2 m/s 753 mmHg 81%
    04:00 +25°C° 0 mm 2 m/s 753 mmHg 83%
    05:00 +25°C° 0 mm 2 m/s 753 mmHg 84%
    06:00 +25°C° 0 mm 3 m/s 753 mmHg 83%
    07:00 +26°C° 0 mm 3 m/s 754 mmHg 82%
    08:00 +27°C° 0 mm 4 m/s 755 mmHg 82%
    09:00 +28°C° 0 mm 4 m/s 755 mmHg 77%
    10:00 +30°C° 0 mm 4 m/s 755 mmHg 71%
    11:00 +32°C° 0 mm 4 m/s 755 mmHg 65%
    12:00 +33°C° 0 mm 3 m/s 754 mmHg 62%
    13:00 +34°C° 0 mm 3 m/s 753 mmHg 58%
    14:00 +34°C° 0 mm 3 m/s 752 mmHg 55%
    15:00 +34°C° 0 mm 2 m/s 751 mmHg 59%
    16:00 +32°C° 0 mm 2 m/s 751 mmHg 62%
    17:00 +32°C° 0 mm 1 m/s 750 mmHg 66%
    18:00 +31°C° 0 mm 1 m/s 751 mmHg 68%
    19:00 +29°C° 0 mm 1 m/s 751 mmHg 70%
    20:00 +28°C° 0 mm 1 m/s 752 mmHg 72%
    21:00 +28°C° 0 mm 2 m/s 752 mmHg 73%
    22:00 +28°C° 0 mm 2 m/s 753 mmHg 74%
    23:00 +27°C° 0 mm 2 m/s 753 mmHg 75%

    Mâine, 10 Decembrie, Marţi

    Timp Temperatura Precipitaţii Vânt Presiune Umiditate
    00:00 +27°C° 0 mm 2 m/s 753 mmHg 76%
    01:00 +26°C° 0 mm 2 m/s 753 mmHg 78%
    02:00 +26°C° 0 mm 2 m/s 753 mmHg 79%
    03:00 +26°C° 0 mm 2 m/s 753 mmHg 81%
    04:00 +25°C° 0 mm 2 m/s 753 mmHg 82%
    05:00 +25°C° 0 mm 2 m/s 753 mmHg 84%
    06:00 +26°C° 0 mm 3 m/s 754 mmHg 83%
    07:00 +26°C° 0 mm 3 m/s 754 mmHg 82%
    08:00 +27°C° 0 mm 4 m/s 754 mmHg 81%
    09:00 +28°C° 0 mm 4 m/s 755 mmHg 74%
    10:00 +30°C° 0 mm 4 m/s 755 mmHg 68%
    11:00 +32°C° 0 mm 4 m/s 755 mmHg 61%
    12:00 +33°C° 0 mm 4 m/s 754 mmHg 57%
    13:00 +34°C° 0 mm 3 m/s 753 mmHg 53%
    14:00 +35°C° 0 mm 3 m/s 752 mmHg 48%
    15:00 +34°C° 0 mm 3 m/s 751 mmHg 51%
    16:00 +34°C° 0 mm 2 m/s 751 mmHg 53%
    17:00 +32°C° 0 mm 2 m/s 750 mmHg 56%
    18:00 +31°C° 0 mm 2 m/s 751 mmHg 58%
    19:00 +29°C° 0 mm 2 m/s 751 mmHg 60%
    20:00 +27°C° 0 mm 2 m/s 752 mmHg 62%
    21:00 +27°C° 0 mm 2 m/s 752 mmHg 65%
    22:00 +27°C° 0 mm 2 m/s 753 mmHg 68%
    23:00 +27°C° 0 mm 2 m/s 753 mmHg 71%

    Poimâine, 11 Decembrie, Miercuri

    Timp Temperatura Precipitaţii Vânt Presiune Umiditate
    00:00 +26°C° 0 mm 2 m/s 753 mmHg 73%
    01:00 +26°C° 0 mm 3 m/s 753 mmHg 76%
    02:00 +25°C° 0 mm 3 m/s 753 mmHg 78%
    03:00 +25°C° 0 mm 3 m/s 752 mmHg 80%
    04:00 +25°C° 0 mm 3 m/s 752 mmHg 82%
    05:00 +25°C° 0 mm 2 m/s 752 mmHg 84%
    06:00 +25°C° 0 mm 3 m/s 753 mmHg 84%
    07:00 +26°C° 0 mm 3 m/s 753 mmHg 83%
    08:00 +26°C° 0 mm 3 m/s 754 mmHg 82%
    09:00 +28°C° 0 mm 3 m/s 754 mmHg 76%
    10:00 +29°C° 0 mm 3 m/s 754 mmHg 69%
    11:00 +32°C° 0 mm 4 m/s 754 mmHg 63%
    12:00 +33°C° 0 mm 3 m/s 753 mmHg 60%
    13:00 +33°C° 0 mm 3 m/s 752 mmHg 57%
    14:00 +34°C° 0 mm 2 m/s 751 mmHg 55%
    15:00 +34°C° 0 mm 2 m/s 751 mmHg 58%
    16:00 +32°C° 0 mm 2 m/s 750 mmHg 61%
    17:00 +32°C° 0 mm 1 m/s 750 mmHg 64%
    18:00 +30°C° 0 mm 1 m/s 750 mmHg 67%
    19:00 +29°C° 0 mm 1 m/s 751 mmHg 70%
    20:00 +28°C° 0 mm 1 m/s 751 mmHg 72%
    21:00 +27°C° 0 mm 1 m/s 752 mmHg 73%
    22:00 +27°C° 0 mm 2 m/s 752 mmHg 75%
    23:00 +26°C° 0 mm 2 m/s 752 mmHg 76%

    12 Decembrie, Joi

    Timp Temperatura Precipitaţii Vânt Presiune Umiditate
    00:00 +26°C° 0 mm 2 m/s 752 mmHg 78%
    01:00 +26°C° 0 mm 2 m/s 752 mmHg 80%
    02:00 +25°C° 0 mm 2 m/s 752 mmHg 82%
    03:00 +25°C° 0 mm 2 m/s 751 mmHg 83%
    04:00 +25°C° 0 mm 2 m/s 751 mmHg 84%
    05:00 +25°C° 0 mm 2 m/s 751 mmHg 85%
    06:00 +25°C° 0 mm 2 m/s 752 mmHg 84%
    07:00 +26°C° 0 mm 3 m/s 752 mmHg 82%
    08:00 +26°C° 0 mm 3 m/s 752 mmHg 81%
    09:00 +28°C° 0 mm 3 m/s 752 mmHg 74%
    10:00 +30°C° 0 mm 3 m/s 752 mmHg 68%
    11:00 +31°C° 0 mm 3 m/s 753 mmHg 62%
    12:00 +33°C° 0 mm 3 m/s 752 mmHg 60%
    13:00 +34°C° 0 mm 3 m/s 751 mmHg 57%
    14:00 +34°C° 0 mm 3 m/s 750 mmHg 54%
    15:00 +34°C° 0 mm 2 m/s 749 mmHg 58%
    16:00 +32°C° 0 mm 2 m/s 749 mmHg 62%
    17:00 +32°C° 0 mm 1 m/s 748 mmHg 65%
    18:00 +31°C° 0.1 mm 1 m/s 749 mmHg 67%
    19:00 +29°C° 0.1 mm 1 m/s 750 mmHg 70%
    20:00 +28°C° 0.1 mm 1 m/s 750 mmHg 72%
    21:00 +27°C° 0.2 mm 2 m/s 751 mmHg 77%
    22:00 +27°C° 0.2 mm 2 m/s 751 mmHg 81%
    23:00 +26°C° 0.2 mm 2 m/s 752 mmHg 86%

    13 Decembrie, Vineri

    Timp Temperatura Precipitaţii Vânt Presiune Umiditate
    00:00 +25°C° 0 mm 2 m/s 751 mmHg 87%
    01:00 +25°C° 0 mm 2 m/s 751 mmHg 87%
    02:00 +25°C° 0 mm 3 m/s 751 mmHg 87%
    03:00 +25°C° 0 mm 2 m/s 751 mmHg 88%
    04:00 +25°C° 0 mm 2 m/s 751 mmHg 89%
    05:00 +24°C° 0 mm 2 m/s 751 mmHg 90%
    06:00 +25°C° 0 mm 3 m/s 751 mmHg 88%
    07:00 +26°C° 0 mm 3 m/s 752 mmHg 86%
    08:00 +26°C° 0 mm 3 m/s 752 mmHg 84%
    09:00 +28°C° 0 mm 3 m/s 752 mmHg 78%
    10:00 +29°C° 0 mm 3 m/s 752 mmHg 72%
    11:00 +31°C° 0 mm 3 m/s 753 mmHg 66%
    12:00 +31°C° 0 mm 3 m/s 752 mmHg 63%
    13:00 +33°C° 0 mm 3 m/s 751 mmHg 61%
    14:00 +34°C° 0 mm 3 m/s 750 mmHg 58%
    15:00 +34°C° 0 mm 2 m/s 749 mmHg 61%
    16:00 +32°C° 0 mm 2 m/s 749 mmHg 63%
    17:00 +32°C° 0 mm 1 m/s 748 mmHg 66%
    18:00 +30°C° 0 mm 1 m/s 749 mmHg 68%
    19:00 +29°C° 0 mm 1 m/s 750 mmHg 70%
    20:00 +28°C° 0 mm 1 m/s 750 mmHg 72%
    21:00 +27°C° 0 mm 1 m/s 751 mmHg 74%
    22:00 +27°C° 0 mm 1 m/s 751 mmHg 75%
    23:00 +27°C° 0 mm 2 m/s 752 mmHg 77%

    14 Decembrie, Sâmbătă

    Timp Temperatura Precipitaţii Vânt Presiune Umiditate
    00:00 +26°C° 0.1 mm 2 m/s 752 mmHg 80%
    01:00 +26°C° 0.1 mm 2 m/s 751 mmHg 83%
    02:00 +25°C° 0.1 mm 2 m/s 751 mmHg 86%
    03:00 +25°C° 0 mm 2 m/s 751 mmHg 87%
    04:00 +25°C° 0 mm 2 m/s 751 mmHg 88%
    05:00 +25°C° 0 mm 2 m/s 751 mmHg 88%
    06:00 +25°C° 0 mm 2 m/s 752 mmHg 86%
    07:00 +26°C° 0 mm 3 m/s 752 mmHg 84%
    08:00 +26°C° 0 mm 3 m/s 753 mmHg 83%
    09:00 +28°C° 0 mm 3 m/s 753 mmHg 76%
    10:00 +29°C° 0 mm 3 m/s 753 mmHg 70%
    11:00 +31°C° 0 mm 3 m/s 753 mmHg 64%
    12:00 +33°C° 0 mm 3 m/s 752 mmHg 61%
    13:00 +34°C° 0 mm 3 m/s 751 mmHg 58%
    14:00 +35°C° 0 mm 2 m/s 750 mmHg 55%
    15:00 +34°C° 0.3 mm 2 m/s 750 mmHg 59%
    16:00 +33°C° 0.3 mm 1 m/s 750 mmHg 64%
    17:00 +32°C° 0.3 mm 1 m/s 749 mmHg 68%
    18:00 +31°C° 0 mm 1 m/s 750 mmHg 72%
    19:00 +29°C° 0 mm 1 m/s 751 mmHg 76%
    20:00 +28°C° 0 mm 1 m/s 751 mmHg 80%
    21:00 +27°C° 0.1 mm 1 m/s 752 mmHg 81%
    22:00 +27°C° 0.1 mm 1 m/s 752 mmHg 82%
    23:00 +26°C° 0.1 mm 1 m/s 753 mmHg 83%
    Arată mai mult